Time,TemperatureF,DewpointF,PressureIn,WindDirection,WindDirectionDegrees,WindSpeedMPH,WindSpeedGustMPH,Humidity,HourlyPrecipIn,Conditions,Clouds,dailyrainin,SoftwareType,DateUTC
2013-01-20 00:13:00,47.5,31.0,29.49,WNW,293,7.0,14.0,53,0.00,,,0.00,weatherlink.com 1.10,2013-01-20 06:13:00,
2013-01-20 00:28:00,47.1,30.0,29.50,WNW,285,8.0,16.0,52,0.00,,,0.00,weatherlink.com 1.10,2013-01-20 06:28:00,
2013-01-20 00:43:00,46.8,28.0,29.50,WNW,301,6.0,15.0,49,0.00,,,0.00,weatherlink.com 1.10,2013-01-20 06:43:00,
2013-01-20 00:58:00,46.0,28.0,29.52,WNW,287,7.0,17.0,50,0.00,,,0.00,weatherlink.com 1.10,2013-01-20 06:58:00,
2013-01-20 01:13:00,45.3,27.0,29.52,NW,312,14.0,15.0,50,0.00,,,0.00,weatherlink.com 1.10,2013-01-20 07:13:00,
2013-01-20 01:28:00,44.6,28.0,29.53,WNW,300,8.0,17.0,52,0.00,,,0.00,weatherlink.com 1.10,2013-01-20 07:28:00,
2013-01-20 01:43:00,44.0,28.0,29.54,WNW,300,10.0,13.0,54,0.00,,,0.00,weatherlink.com 1.10,2013-01-20 07:43:00,
2013-01-20 01:58:00,43.1,27.0,29.54,NW,320,5.0,16.0,54,0.00,,,0.00,weatherlink.com 1.10,2013-01-20 07:58:00,
2013-01-20 02:13:00,42.4,28.0,29.55,WNW,287,5.0,12.0,56,0.00,,,0.00,weatherlink.com 1.10,2013-01-20 08:13:00,
2013-01-20 02:28:00,41.7,28.0,29.55,West,280,3.0,8.0,58,0.00,,,0.00,weatherlink.com 1.10,2013-01-20 08:28:00,
2013-01-20 02:43:00,41.4,27.0,29.56,WNW,287,7.0,9.0,58,0.00,,,0.00,weatherlink.com 1.10,2013-01-20 08:43:00,
2013-01-20 02:58:00,41.1,26.0,29.56,WNW,295,6.0,13.0,55,0.00,,,0.00,weatherlink.com 1.10,2013-01-20 08:58:00,
2013-01-20 03:13:00,40.6,24.0,29.57,WNW,291,9.0,12.0,53,0.00,,,0.00,weatherlink.com 1.10,2013-01-20 09:13:00,
2013-01-20 03:28:00,39.9,24.0,29.57,NNW,346,6.0,12.0,53,0.00,,,0.00,weatherlink.com 1.10,2013-01-20 09:28:00,
2013-01-20 03:43:00,39.3,20.0,29.58,West,278,11.0,15.0,47,0.00,,,0.00,weatherlink.com 1.10,2013-01-20 09:43:00,
2013-01-20 03:58:00,37.8,18.0,29.59,WNW,291,6.0,22.0,44,0.00,,,0.00,weatherlink.com 1.10,2013-01-20 09:58:00,
2013-01-20 04:13:00,36.9,17.0,29.60,NW,321,8.0,19.0,45,0.00,,,0.00,weatherlink.com 1.10,2013-01-20 10:13:00,
2013-01-20 04:28:00,36.1,18.0,29.60,NNW,332,7.0,12.0,49,0.00,,,0.00,weatherlink.com 1.10,2013-01-20 10:28:00,
2013-01-20 04:43:00,34.1,23.0,29.61,NNE,16,10.0,11.0,64,0.00,,,0.00,weatherlink.com 1.10,2013-01-20 10:43:00,
2013-01-20 04:58:00,32.0,24.0,29.61,North,4,4.0,12.0,73,0.00,,,0.00,weatherlink.com 1.10,2013-01-20 10:58:00,
2013-01-20 05:14:00,31.2,24.0,29.62,NNW,332,3.0,10.0,75,0.00,,,0.00,weatherlink.com 1.10,2013-01-20 11:14:00,
2013-01-20 05:29:00,30.7,24.0,29.63,WNW,297,3.0,7.0,75,0.00,,,0.00,weatherlink.com 1.10,2013-01-20 11:29:00,
2013-01-20 05:44:00,30.4,21.0,29.63,NW,307,3.0,10.0,67,0.00,,,0.00,weatherlink.com 1.10,2013-01-20 11:44:00,
2013-01-20 05:59:00,30.0,19.0,29.64,NW,307,8.0,11.0,63,0.00,,,0.00,weatherlink.com 1.10,2013-01-20 11:59:00,
2013-01-20 06:14:00,29.7,18.0,29.65,NW,314,3.0,10.0,61,0.00,,,0.00,weatherlink.com 1.10,2013-01-20 12:14:00,
2013-01-20 06:29:00,29.0,17.0,29.65,NW,318,3.0,9.0,61,0.00,,,0.00,weatherlink.com 1.10,2013-01-20 12:29:00,
2013-01-20 06:44:00,28.8,17.0,29.65,WNW,297,4.0,8.0,62,0.00,,,0.00,weatherlink.com 1.10,2013-01-20 12:44:00,
2013-01-20 06:59:00,28.5,14.0,29.66,WNW,295,2.0,9.0,56,0.00,,,0.00,weatherlink.com 1.10,2013-01-20 12:59:00,
2013-01-20 07:14:00,28.1,12.0,29.67,NW,316,4.0,11.0,52,0.00,,,0.00,weatherlink.com 1.10,2013-01-20 13:14:00,
2013-01-20 07:29:00,27.6,11.0,29.67,NW,314,3.0,7.0,50,0.00,,,0.00,weatherlink.com 1.10,2013-01-20 13:29:00,
2013-01-20 07:44:00,27.5,10.0,29.67,NW,320,1.0,6.0,48,0.00,,,0.00,weatherlink.com 1.10,2013-01-20 13:44:00,
2013-01-20 07:59:00,27.7,9.0,29.68,NNW,329,1.0,8.0,46,0.00,,,0.00,weatherlink.com 1.10,2013-01-20 13:59:00,
2013-01-20 08:14:00,27.8,9.0,29.68,NNE,13,4.0,8.0,46,0.00,,,0.00,weatherlink.com 1.10,2013-01-20 14:14:00,
2013-01-20 08:29:00,28.0,11.0,29.69,NW,311,4.0,8.0,49,0.00,,,0.00,weatherlink.com 1.10,2013-01-20 14:29:00,
2013-01-20 08:44:00,28.4,12.0,29.71,WNW,297,1.0,7.0,51,0.00,,,0.00,weatherlink.com 1.10,2013-01-20 14:44:00,
2013-01-20 08:59:00,28.5,12.0,29.70,WNW,298,2.0,9.0,50,0.00,,,0.00,weatherlink.com 1.10,2013-01-20 14:59:00,
2013-01-20 09:14:00,28.6,12.0,29.70,NE,43,6.0,10.0,50,0.00,,,0.00,weatherlink.com 1.10,2013-01-20 15:14:00,
2013-01-20 09:29:00,28.8,11.0,29.70,NE,36,3.0,9.0,47,0.00,,,0.00,weatherlink.com 1.10,2013-01-20 15:29:00,
2013-01-20 09:44:00,29.5,10.0,29.70,NNW,330,3.0,10.0,44,0.00,,,0.00,weatherlink.com 1.10,2013-01-20 15:44:00,
2013-01-20 09:59:00,29.4,10.0,29.71,NNE,25,3.0,9.0,45,0.00,,,0.00,weatherlink.com 1.10,2013-01-20 15:59:00,
2013-01-20 10:14:00,29.4,10.0,29.71,WNW,297,6.0,9.0,45,0.00,,,0.00,weatherlink.com 1.10,2013-01-20 16:14:00,
2013-01-20 10:29:00,30.2,9.0,29.71,North,354,5.0,7.0,41,0.00,,,0.00,weatherlink.com 1.10,2013-01-20 16:29:00,
2013-01-20 10:44:00,30.5,9.0,29.71,WNW,302,2.0,6.0,40,0.00,,,0.00,weatherlink.com 1.10,2013-01-20 16:44:00,
2013-01-20 10:59:00,30.8,8.0,29.71,NW,318,1.0,7.0,39,0.00,,,0.00,weatherlink.com 1.10,2013-01-20 16:59:00,
2013-01-20 11:14:00,31.4,10.0,29.70,WSW,248,3.0,7.0,40,0.00,,,0.00,weatherlink.com 1.10,2013-01-20 17:14:00,
2013-01-20 11:29:00,32.4,9.0,29.68,NW,320,3.0,9.0,38,0.00,,,0.00,weatherlink.com 1.10,2013-01-20 17:29:00,
2013-01-20 11:44:00,33.0,11.0,29.68,WNW,300,4.0,6.0,40,0.00,,,0.00,weatherlink.com 1.10,2013-01-20 17:44:00,
2013-01-20 11:59:00,33.3,10.0,29.66,NW,316,2.0,9.0,38,0.00,,,0.00,weatherlink.com 1.10,2013-01-20 17:59:00,
2013-01-20 12:14:00,33.1,10.0,29.65,NW,307,7.0,7.0,39,0.00,,,0.00,weatherlink.com 1.10,2013-01-20 18:14:00,
2013-01-20 12:29:00,33.6,10.0,29.64,NW,312,2.0,7.0,38,0.00,,,0.00,weatherlink.com 1.10,2013-01-20 18:29:00,
2013-01-20 12:44:00,33.3,10.0,29.64,North,352,2.0,7.0,38,0.00,,,0.00,weatherlink.com 1.10,2013-01-20 18:44:00,
2013-01-20 12:59:00,33.6,11.0,29.64,NE,41,3.0,6.0,39,0.00,,,0.00,weatherlink.com 1.10,2013-01-20 18:59:00,
2013-01-20 13:14:00,34.4,12.0,29.66,North,349,7.0,7.0,39,0.00,,,0.00,weatherlink.com 1.10,2013-01-20 19:14:00,
2013-01-20 13:29:00,34.6,12.0,29.66,WNW,300,7.0,9.0,40,0.00,,,0.00,weatherlink.com 1.10,2013-01-20 19:29:00,
2013-01-20 13:44:00,34.0,12.0,29.66,NW,315,4.0,6.0,41,0.00,,,0.00,weatherlink.com 1.10,2013-01-20 19:44:00,
2013-01-20 13:59:00,34.1,14.0,29.67,WNW,297,4.0,10.0,43,0.00,,,0.00,weatherlink.com 1.10,2013-01-20 19:59:00,
2013-01-20 14:14:00,34.1,14.0,29.67,NW,318,6.0,7.0,43,0.00,,,0.00,weatherlink.com 1.10,2013-01-20 20:14:00,
2013-01-20 14:29:00,33.7,12.0,29.67,NW,308,3.0,9.0,40,0.00,,,0.00,weatherlink.com 1.10,2013-01-20 20:29:00,
2013-01-20 14:44:00,33.8,9.0,29.66,North,353,3.0,8.0,36,0.00,,,0.00,weatherlink.com 1.10,2013-01-20 20:44:00,
2013-01-20 14:59:00,33.6,9.0,29.65,NNE,25,4.0,9.0,36,0.00,,,0.00,weatherlink.com 1.10,2013-01-20 20:59:00,
2013-01-20 15:14:00,33.3,11.0,29.65,NNW,342,3.0,9.0,39,0.00,,,0.00,weatherlink.com 1.10,2013-01-20 21:14:00,
2013-01-20 15:29:00,33.3,11.0,29.66,NW,309,1.0,9.0,40,0.00,,,0.00,weatherlink.com 1.10,2013-01-20 21:29:00,
2013-01-20 15:44:00,33.0,13.0,29.67,NNE,23,2.0,9.0,44,0.00,,,0.00,weatherlink.com 1.10,2013-01-20 21:44:00,
2013-01-20 15:59:00,32.4,13.0,29.66,NNE,12,3.0,6.0,45,0.00,,,0.00,weatherlink.com 1.10,2013-01-20 21:59:00,
2013-01-20 16:14:00,32.1,13.0,29.66,North,355,3.0,8.0,45,0.00,,,0.00,weatherlink.com 1.10,2013-01-20 22:14:00,
2013-01-20 16:29:00,31.4,12.0,29.67,NNW,345,1.0,6.0,45,0.00,,,0.00,weatherlink.com 1.10,2013-01-20 22:29:00,
2013-01-20 16:44:00,30.8,12.0,29.66,NE,39,3.0,8.0,46,0.00,,,0.00,weatherlink.com 1.10,2013-01-20 22:44:00,
2013-01-20 16:59:00,30.5,12.0,29.67,NW,320,3.0,6.0,47,0.00,,,0.00,weatherlink.com 1.10,2013-01-20 22:59:00,
2013-01-20 17:14:00,29.9,13.0,29.67,NW,316,1.0,5.0,49,0.00,,,0.00,weatherlink.com 1.10,2013-01-20 23:14:00,
2013-01-20 17:29:00,29.4,13.0,29.67,NE,47,3.0,6.0,51,0.00,,,0.00,weatherlink.com 1.10,2013-01-20 23:29:00,
2013-01-20 17:44:00,28.9,13.0,29.67,ENE,64,4.0,5.0,52,0.00,,,0.00,weatherlink.com 1.10,2013-01-20 23:44:00,
2013-01-20 17:59:00,28.8,13.0,29.66,NNW,340,3.0,7.0,53,0.00,,,0.00,weatherlink.com 1.10,2013-01-20 23:59:00,
2013-01-20 18:14:00,28.6,13.0,29.67,North,6,8.0,8.0,53,0.00,,,0.00,weatherlink.com 1.10,2013-01-21 00:14:00,
2013-01-20 18:29:00,28.5,13.0,29.66,NE,51,3.0,5.0,52,0.00,,,0.00,weatherlink.com 1.10,2013-01-21 00:29:00,
2013-01-20 18:45:00,28.2,12.0,29.66,NNE,26,3.0,7.0,52,0.00,,,0.00,weatherlink.com 1.10,2013-01-21 00:45:00,
2013-01-20 19:00:00,28.2,12.0,29.66,NW,311,1.0,9.0,52,0.00,,,0.00,weatherlink.com 1.10,2013-01-21 01:00:00,
2013-01-20 19:15:00,28.3,13.0,29.66,NNW,343,3.0,6.0,52,0.00,,,0.00,weatherlink.com 1.10,2013-01-21 01:15:00,
2013-01-20 19:30:00,28.0,13.0,29.67,North,1,3.0,8.0,54,0.00,,,0.00,weatherlink.com 1.10,2013-01-21 01:30:00,
2013-01-20 19:45:00,27.9,14.0,29.67,North,351,3.0,6.0,55,0.00,,,0.00,weatherlink.com 1.10,2013-01-21 01:45:00,
2013-01-20 20:00:00,27.5,14.0,29.67,WNW,300,1.0,8.0,56,0.00,,,0.00,weatherlink.com 1.10,2013-01-21 02:00:00,
2013-01-20 20:15:00,27.0,14.0,29.67,NNE,33,5.0,8.0,58,0.00,,,0.00,weatherlink.com 1.10,2013-01-21 02:15:00,
2013-01-20 20:30:00,26.6,14.0,29.68,NNW,328,0.0,7.0,59,0.00,,,0.00,weatherlink.com 1.10,2013-01-21 02:30:00,
2013-01-20 20:45:00,26.3,14.0,29.67,North,351,2.0,8.0,60,0.00,,,0.00,weatherlink.com 1.10,2013-01-21 02:45:00,
2013-01-20 21:00:00,26.5,14.0,29.67,NNW,327,1.0,5.0,59,0.00,,,0.00,weatherlink.com 1.10,2013-01-21 03:00:00,
2013-01-20 21:15:00,26.5,14.0,29.67,North,11,1.0,6.0,60,0.00,,,0.00,weatherlink.com 1.10,2013-01-21 03:15:00,
2013-01-20 21:30:00,26.2,14.0,29.68,North,8,4.0,7.0,61,0.00,,,0.00,weatherlink.com 1.10,2013-01-21 03:30:00,
2013-01-20 21:45:00,26.2,15.0,29.68,NNE,18,4.0,6.0,62,0.00,,,0.00,weatherlink.com 1.10,2013-01-21 03:45:00,
2013-01-20 22:00:00,25.8,14.0,29.68,NW,304,1.0,7.0,62,0.00,,,0.00,weatherlink.com 1.10,2013-01-21 04:00:00,
2013-01-20 22:15:00,25.8,14.0,29.68,NNE,30,2.0,7.0,62,0.00,,,0.00,weatherlink.com 1.10,2013-01-21 04:15:00,
2013-01-20 22:30:00,26.0,14.0,29.68,NW,315,3.0,7.0,60,0.00,,,0.00,weatherlink.com 1.10,2013-01-21 04:30:00,
2013-01-20 22:45:00,25.8,14.0,29.68,NW,316,2.0,7.0,60,0.00,,,0.00,weatherlink.com 1.10,2013-01-21 04:45:00,
2013-01-20 23:00:00,25.7,14.0,29.68,NNW,345,1.0,7.0,61,0.00,,,0.00,weatherlink.com 1.10,2013-01-21 05:00:00,
2013-01-20 23:15:00,26.1,13.0,29.68,WNW,290,4.0,9.0,59,0.00,,,0.00,weatherlink.com 1.10,2013-01-21 05:15:00,
2013-01-20 23:30:00,25.6,13.0,29.68,WNW,295,5.0,9.0,59,0.00,,,0.00,weatherlink.com 1.10,2013-01-21 05:30:00,
2013-01-20 23:45:00,25.1,11.0,29.68,NW,309,7.0,10.0,56,0.00,,,0.00,weatherlink.com 1.10,2013-01-21 05:45:00,